,,,PA_Meas_PMT16A,,PR_Meas_QMR101_102,,RH_Meas_QMH101,,SR_Meas_QMS101,,TA_Meas_QMH101,,GenWind,,GenWind,
date,time,status,PA,status,PR,status,RH,status,SR,status,TA,status,DirAvg,status,SpdAvg,
2010-01-26, 00:00:04,VALID,1002.08,VALID,0,VALID,93.8062,VALID,0,VALID,23.1762,VALID,97,VALID,0,
2010-01-26, 00:01:04,VALID,1002.1,VALID,0,VALID,93.7985,VALID,0,VALID,23.1744,VALID,97,VALID,0,
2010-01-26, 00:02:04,VALID,1002.08,VALID,0,VALID,93.8062,VALID,0,VALID,23.1744,VALID,97,VALID,0,
2010-01-26, 00:03:04,VALID,1002.08,VALID,0,VALID,93.8138,VALID,0,VALID,23.1957,VALID,114,VALID,0,
2010-01-26, 00:04:04,VALID,1002.08,VALID,0,VALID,93.8214,VALID,0,VALID,23.2134,VALID,148,VALID,0,
2010-01-26, 00:05:04,VALID,1002.06,VALID,0,VALID,93.852,VALID,0,VALID,23.2134,VALID,170,VALID,0,
2010-01-26, 00:06:04,VALID,1002.06,VALID,0,VALID,93.8825,VALID,0,VALID,23.2737,VALID,188,VALID,0,
2010-01-26, 00:07:04,VALID,1002.09,VALID,0,VALID,93.8672,VALID,0,VALID,23.3323,VALID,190,VALID,0,
2010-01-26, 00:08:04,VALID,1002.08,VALID,0,VALID,93.8672,VALID,0,VALID,23.3323,VALID,190,VALID,0,
2010-01-26, 00:09:04,VALID,1002.07,VALID,0,VALID,93.8367,VALID,0,VALID,23.2915,VALID,209,VALID,0,
2010-01-26, 00:10:04,VALID,1002.1,VALID,0,VALID,93.852,VALID,0,VALID,23.3127,VALID,306,VALID,0,
2010-01-26, 00:11:04,VALID,1002.08,VALID,0,VALID,93.8138,VALID,0,VALID,23.2932,VALID,312,VALID,0,
2010-01-26, 00:12:04,VALID,1002.08,VALID,0,VALID,93.7985,VALID,0,VALID,23.2542,VALID,312,VALID,0,
2010-01-26, 00:13:04,VALID,1002.1,VALID,0,VALID,93.7757,VALID,0,VALID,23.2347,VALID,312,VALID,0,
2010-01-26, 00:14:04,VALID,1002.08,VALID,0,VALID,93.7757,VALID,0,VALID,23.1939,VALID,312,VALID,0,
2010-01-26, 00:15:04,VALID,1002.07,VALID,0,VALID,93.7833,VALID,0,VALID,23.1939,VALID,312,VALID,0,
2010-01-26, 00:16:04,VALID,1002.05,VALID,0,VALID,93.7833,VALID,0,VALID,23.1939,VALID,312,VALID,0,
2010-01-26, 00:17:04,VALID,1002.07,VALID,0,VALID,93.7833,VALID,0.112286,VALID,23.1531,VALID,312,VALID,0,
2010-01-26, 00:18:04,VALID,1002.06,VALID,0,VALID,93.7757,VALID,0,VALID,23.1549,VALID,312,VALID,0,
2010-01-26, 00:19:04,VALID,1002.08,VALID,0,VALID,93.768,VALID,0,VALID,23.1549,VALID,312,VALID,0,
2010-01-26, 00:20:04,VALID,1002.09,VALID,0,VALID,93.7223,VALID,0,VALID,23.1159,VALID,312,VALID,0,
2010-01-26, 00:21:04,VALID,1002.09,VALID,0,VALID,93.6841,VALID,0,VALID,23.0769,VALID,343,VALID,0.695703,
2010-01-26, 00:22:04,VALID,1002.06,VALID,0,VALID,93.6994,VALID,0,VALID,23.0378,VALID,343,VALID,0.646875,
2010-01-26, 00:23:04,VALID,1002.04,VALID,0,VALID,93.7757,VALID,0,VALID,23.0183,VALID,343,VALID,0.533203,
2010-01-26, 00:24:04,VALID,1001.99,VALID,0,VALID,93.7985,VALID,0,VALID,23.0166,VALID,343,VALID,0.35625,
2010-01-26, 00:25:04,VALID,1001.99,VALID,0,VALID,93.7833,VALID,0,VALID,23.0573,VALID,343,VALID,0,
2010-01-26, 00:26:04,VALID,1002,VALID,0,VALID,93.7757,VALID,0,VALID,23.0183,VALID,343,VALID,0,
2010-01-26, 00:27:04,VALID,1001.96,VALID,0,VALID,93.7985,VALID,0,VALID,22.9776,VALID,343,VALID,0,
2010-01-26, 00:28:04,VALID,1001.95,VALID,0,VALID,93.8291,VALID,0,VALID,22.9776,VALID,343,VALID,0,
2010-01-26, 00:29:04,VALID,1001.92,VALID,0,VALID,93.8748,VALID,0,VALID,23.0201,VALID,343,VALID,0,
2010-01-26, 00:30:04,VALID,1001.92,VALID,0,VALID,93.8596,VALID,0,VALID,23.0396,VALID,343,VALID,0,
2010-01-26, 00:31:04,VALID,1001.91,VALID,0,VALID,93.8825,VALID,0,VALID,23.0591,VALID,343,VALID,0,
2010-01-26, 00:32:04,VALID,1001.89,VALID,0,VALID,93.8901,VALID,0,VALID,23.0573,VALID,343,VALID,0,
2010-01-26, 00:33:04,VALID,1001.87,VALID,0,VALID,93.8596,VALID,0,VALID,23.0573,VALID,343,VALID,0,
2010-01-26, 00:34:04,VALID,1001.84,VALID,0,VALID,93.8825,VALID,0,VALID,23.0786,VALID,343,VALID,0,
2010-01-26, 00:35:04,VALID,1001.85,VALID,0,VALID,93.913,VALID,0,VALID,23.0786,VALID,343,VALID,0,
2010-01-26, 00:36:04,VALID,1001.77,VALID,0,VALID,93.8977,VALID,0,VALID,23.0786,VALID,343,VALID,0,
2010-01-26, 00:37:04,VALID,1001.8,VALID,0,VALID,93.913,VALID,0,VALID,23.0769,VALID,343,VALID,0,
2010-01-26, 00:38:05,VALID,1001.75,VALID,0,VALID,93.9664,VALID,0,VALID,23.0964,VALID,343,VALID,0,
2010-01-26, 00:39:05,VALID,1001.76,VALID,0,VALID,93.9435,VALID,0,VALID,23.1176,VALID,343,VALID,0,
2010-01-26, 00:40:05,VALID,1001.76,VALID,0,VALID,93.913,VALID,0,VALID,23.1176,VALID,343,VALID,0,
2010-01-26, 00:41:05,VALID,1001.78,VALID,0,VALID,93.9054,VALID,0,VALID,23.0981,VALID,343,VALID,0,
2010-01-26, 00:42:05,VALID,1001.77,VALID,0,VALID,93.9435,VALID,0,VALID,23.0786,VALID,343,VALID,0,
2010-01-26, 00:43:05,VALID,1001.76,VALID,0,VALID,93.9435,VALID,0,VALID,23.0981,VALID,142,VALID,0,
2010-01-26, 00:44:05,VALID,1001.74,VALID,0,VALID,93.9435,VALID,0,VALID,23.0964,VALID,148,VALID,0,
2010-01-26, 00:45:05,VALID,1001.77,VALID,0,VALID,93.9206,VALID,0,VALID,23.0964,VALID,148,VALID,0,
2010-01-26, 00:46:05,VALID,1001.76,VALID,0,VALID,93.9435,VALID,0,VALID,23.0769,VALID,148,VALID,0,
2010-01-26, 00:47:05,VALID,1001.78,VALID,0,VALID,93.9359,VALID,0,VALID,23.0964,VALID,148,VALID,0,
2010-01-26, 00:48:05,VALID,1001.82,VALID,0,VALID,93.9511,VALID,0,VALID,23.0964,VALID,148,VALID,0,
2010-01-26, 00:49:05,VALID,1001.81,VALID,0,VALID,93.9588,VALID,0,VALID,23.0751,VALID,148,VALID,0,
2010-01-26, 00:50:05,VALID,1001.81,VALID,0,VALID,93.9511,VALID,0,VALID,23.0751,VALID,141,VALID,0,
2010-01-26, 00:51:05,VALID,1001.83,VALID,0,VALID,93.974,VALID,0,VALID,23.0964,VALID,111,VALID,0.00820312,
2010-01-26, 00:52:05,VALID,1001.86,VALID,0,VALID,93.9893,VALID,0.112286,VALID,23.0946,VALID,91,VALID,0.736328,
2010-01-26, 00:53:05,VALID,1001.86,VALID,0,VALID,93.9206,VALID,0,VALID,23.1159,VALID,80,VALID,0.846484,
2010-01-26, 00:54:05,VALID,1001.86,VALID,0,VALID,93.8901,VALID,0,VALID,23.0378,VALID,71,VALID,0.908594,
2010-01-26, 00:55:05,VALID,1001.81,VALID,0,VALID,93.9206,VALID,0,VALID,22.9776,VALID,71,VALID,0.709375,
2010-01-26, 00:56:05,VALID,1001.84,VALID,0,VALID,93.9206,VALID,0,VALID,22.9988,VALID,71,VALID,0.516016,
2010-01-26, 00:57:05,VALID,1001.83,VALID,0,VALID,93.913,VALID,0,VALID,22.9793,VALID,69,VALID,0.519531,
2010-01-26, 00:58:05,VALID,1001.84,VALID,0,VALID,93.913,VALID,0,VALID,22.9403,VALID,53,VALID,0.665234,
2010-01-26, 00:59:05,VALID,1001.83,VALID,0,VALID,93.9283,VALID,0,VALID,22.942,VALID,45,VALID,0.692187,
2010-01-26, 01:00:05,VALID,1001.86,VALID,0,VALID,93.9511,VALID,0,VALID,22.9225,VALID,38,VALID,0.595703,
2010-01-26, 01:01:05,VALID,1001.85,VALID,0,VALID,93.9588,VALID,0,VALID,22.942,VALID,25,VALID,0.679688,
2010-01-26, 01:02:05,VALID,1001.85,VALID,0,VALID,93.974,VALID,0,VALID,22.9403,VALID,15,VALID,0.908203,
2010-01-26, 01:03:05,VALID,1001.86,VALID,0,VALID,93.9359,VALID,0,VALID,22.942,VALID,350,VALID,0.839844,
2010-01-26, 01:04:05,VALID,1001.9,VALID,0,VALID,93.974,VALID,0,VALID,22.9633,VALID,350,VALID,0.913281,
2010-01-26, 01:05:05,VALID,1001.9,VALID,0,VALID,93.9664,VALID,0,VALID,22.942,VALID,355,VALID,0.958203,
2010-01-26, 01:06:05,VALID,1001.88,VALID,0,VALID,93.974,VALID,0,VALID,22.9225,VALID,356,VALID,0.773438,
2010-01-26, 01:07:05,VALID,1001.85,VALID,0,VALID,93.9817,VALID,0,VALID,22.9403,VALID,356,VALID,0.590625,
2010-01-26, 01:08:05,VALID,1001.87,VALID,0,VALID,93.9588,VALID,0,VALID,22.9225,VALID,356,VALID,0.566016,
2010-01-26, 01:09:05,VALID,1001.84,VALID,0,VALID,94.0045,VALID,0,VALID,22.942,VALID,356,VALID,0.4875,
2010-01-26, 01:10:05,VALID,1001.84,VALID,0,VALID,94.0122,VALID,0,VALID,22.942,VALID,356,VALID,0.680469,
2010-01-26, 01:11:05,VALID,1001.81,VALID,0,VALID,94.0045,VALID,0,VALID,22.942,VALID,356,VALID,0.680078,
2010-01-26, 01:12:05,VALID,1001.8,VALID,0,VALID,93.9969,VALID,0,VALID,22.942,VALID,356,VALID,0.674609,
2010-01-26, 01:13:05,VALID,1001.78,VALID,0,VALID,93.974,VALID,0,VALID,22.903,VALID,357,VALID,0.604688,
2010-01-26, 01:14:05,VALID,1001.75,VALID,0,VALID,94.0045,VALID,0,VALID,22.88,VALID,18,VALID,0.810547,
2010-01-26, 01:15:05,VALID,1001.75,VALID,0,VALID,94.0122,VALID,0,VALID,22.9013,VALID,24,VALID,0.899219,
2010-01-26, 01:16:05,VALID,1001.72,VALID,0,VALID,94.0198,VALID,0,VALID,22.9013,VALID,24,VALID,0.699219,
2010-01-26, 01:17:05,VALID,1001.67,VALID,0,VALID,94.0427,VALID,0,VALID,22.9208,VALID,25,VALID,0.638672,
2010-01-26, 01:18:05,VALID,1001.65,VALID,0,VALID,94.0656,VALID,0,VALID,22.9385,VALID,26,VALID,0.633594,
2010-01-26, 01:19:05,VALID,1001.61,VALID,0,VALID,94.0351,VALID,0,VALID,22.9385,VALID,29,VALID,0.436328,
2010-01-26, 01:20:05,VALID,1001.62,VALID,0,VALID,94.0656,VALID,0.112286,VALID,22.9581,VALID,29,VALID,0.715234,
2010-01-26, 01:21:05,VALID,1001.57,VALID,0,VALID,94.0656,VALID,0.112286,VALID,22.9776,VALID,29,VALID,0.704297,
2010-01-26, 01:22:05,VALID,1001.58,VALID,0,VALID,94.058,VALID,0,VALID,22.9988,VALID,30,VALID,0.826953,
2010-01-26, 01:23:05,VALID,1001.58,VALID,0,VALID,94.0274,VALID,0.112286,VALID,22.9793,VALID,32,VALID,0.933594,
2010-01-26, 01:24:05,VALID,1001.6,VALID,0,VALID,94.0198,VALID,0,VALID,22.9598,VALID,33,VALID,0.842578,
2010-01-26, 01:25:05,VALID,1001.58,VALID,0,VALID,94.0045,VALID,0,VALID,22.9403,VALID,33,VALID,0.839453,
2010-01-26, 01:26:05,VALID,1001.58,VALID,0,VALID,93.9893,VALID,0,VALID,22.9403,VALID,33,VALID,0.704297,
2010-01-26, 01:27:05,VALID,1001.54,VALID,0,VALID,94.0198,VALID,0.112286,VALID,22.919,VALID,33,VALID,0.535156,
2010-01-26, 01:28:05,VALID,1001.51,VALID,0,VALID,94.0427,VALID,0,VALID,22.8995,VALID,33,VALID,0.225781,
2010-01-26, 01:29:05,VALID,1001.45,VALID,0,VALID,94.0045,VALID,0,VALID,22.9013,VALID,33,VALID,0.208984,
2010-01-26, 01:30:05,VALID,1001.47,VALID,0,VALID,94.0503,VALID,0,VALID,22.9225,VALID,33,VALID,0.366016,
2010-01-26, 01:31:05,VALID,1001.47,VALID,0,VALID,94.0427,VALID,0,VALID,22.9615,VALID,30,VALID,0.376172,
2010-01-26, 01:32:05,VALID,1001.45,VALID,0,VALID,94.0427,VALID,0,VALID,22.9208,VALID,20,VALID,0.515625,
2010-01-26, 01:33:05,VALID,1001.44,VALID,0,VALID,94.0198,VALID,0,VALID,22.9013,VALID,20,VALID,0.301562,
2010-01-26, 01:34:05,VALID,1001.42,VALID,0,VALID,94.0198,VALID,0,VALID,22.9013,VALID,20,VALID,0.128516,
2010-01-26, 01:35:05,VALID,1001.34,VALID,0,VALID,93.974,VALID,0,VALID,22.8623,VALID,20,VALID,0.0679687,
2010-01-26, 01:36:05,VALID,1001.34,VALID,0,VALID,93.9893,VALID,0,VALID,22.8445,VALID,20,VALID,0,
2010-01-26, 01:37:05,VALID,1001.34,VALID,0,VALID,93.974,VALID,0,VALID,22.7842,VALID,20,VALID,0,
2010-01-26, 01:38:05,VALID,1001.29,VALID,0,VALID,94.0274,VALID,0,VALID,22.8427,VALID,20,VALID,0,
2010-01-26, 01:39:05,VALID,1001.29,VALID,0,VALID,94.0656,VALID,0,VALID,22.9208,VALID,20,VALID,0,
2010-01-26, 01:40:05,VALID,1001.25,VALID,0,VALID,94.0808,VALID,0,VALID,22.9793,VALID,20,VALID,0,
2010-01-26, 01:41:05,VALID,1001.25,VALID,0,VALID,94.0732,VALID,0,VALID,22.9988,VALID,190,VALID,0.835156,
2010-01-26, 01:42:05,VALID,1001.24,VALID,0,VALID,94.0503,VALID,0,VALID,22.9793,VALID,164,VALID,0.913672,
2010-01-26, 01:43:05,VALID,1001.23,VALID,0,VALID,94.0656,VALID,0,VALID,22.9988,VALID,170,VALID,1.2082,
2010-01-26, 01:44:05,VALID,1001.23,VALID,0,VALID,94.0503,VALID,0,VALID,23.0183,VALID,167,VALID,1.25664,
2010-01-26, 01:45:05,VALID,1001.23,VALID,0,VALID,94.0503,VALID,0,VALID,23.0201,VALID,176,VALID,1.31797,
2010-01-26, 01:46:05,VALID,1001.24,VALID,0,VALID,94.0427,VALID,0,VALID,22.9793,VALID,160,VALID,1.06992,
2010-01-26, 01:47:05,VALID,1001.2,VALID,0,VALID,94.0351,VALID,0,VALID,22.9598,VALID,171,VALID,1.32109,
2010-01-26, 01:48:05,VALID,1001.18,VALID,0,VALID,93.974,VALID,0,VALID,22.942,VALID,173,VALID,1.3168,
2010-01-26, 01:49:05,VALID,1001.16,VALID,0,VALID,94.0122,VALID,0,VALID,22.8818,VALID,174,VALID,1.59297,
2010-01-26, 01:50:05,VALID,1001.15,VALID,0,VALID,93.9969,VALID,0,VALID,22.8623,VALID,177,VALID,1.36328,
2010-01-26, 01:51:05,VALID,1001.14,VALID,0,VALID,94.0351,VALID,0,VALID,22.8818,VALID,167,VALID,1.33906,
2010-01-26, 01:52:05,VALID,1001.16,VALID,0,VALID,93.974,VALID,0,VALID,22.903,VALID,165,VALID,0.762891,
2010-01-26, 01:53:05,VALID,1001.15,VALID,0,VALID,94.0045,VALID,0,VALID,22.8623,VALID,153,VALID,0.708594,
2010-01-26, 01:54:05,VALID,1001.18,VALID,0,VALID,93.9817,VALID,0,VALID,22.8427,VALID,153,VALID,0.212109,
2010-01-26, 01:55:05,VALID,1001.18,VALID,0,VALID,93.974,VALID,0,VALID,22.8232,VALID,153,VALID,0.209375,
2010-01-26, 01:56:05,VALID,1001.14,VALID,0,VALID,93.9664,VALID,0,VALID,22.8037,VALID,153,VALID,0.107813,
2010-01-26, 01:57:05,VALID,1001.14,VALID,0,VALID,93.9817,VALID,0,VALID,22.8055,VALID,153,VALID,0,
2010-01-26, 01:58:05,VALID,1001.14,VALID,0,VALID,93.9664,VALID,0,VALID,22.7842,VALID,153,VALID,0,
2010-01-26, 01:59:05,VALID,1001.17,VALID,0,VALID,93.974,VALID,0,VALID,22.7647,VALID,149,VALID,0,
2010-01-26, 02:00:05,VALID,1001.17,VALID,0,VALID,93.9893,VALID,0,VALID,22.7664,VALID,148,VALID,0,
2010-01-26, 02:01:05,VALID,1001.14,VALID,0,VALID,93.9893,VALID,0,VALID,22.7435,VALID,148,VALID,0,
2010-01-26, 02:02:05,VALID,1001.16,VALID,0,VALID,93.9588,VALID,0,VALID,22.7257,VALID,148,VALID,0,
2010-01-26, 02:03:05,VALID,1001.13,VALID,0,VALID,93.974,VALID,0,VALID,22.7469,VALID,148,VALID,0,
2010-01-26, 02:04:05,VALID,1001.14,VALID,0,VALID,93.974,VALID,0,VALID,22.7469,VALID,148,VALID,0,
2010-01-26, 02:05:05,VALID,1001.14,VALID,0,VALID,93.9893,VALID,0,VALID,22.7647,VALID,149,VALID,0,
2010-01-26, 02:06:05,VALID,1001.12,VALID,0,VALID,93.9817,VALID,0,VALID,22.7647,VALID,149,VALID,0,
2010-01-26, 02:07:05,VALID,1001.13,VALID,0,VALID,93.9817,VALID,0,VALID,22.7469,VALID,149,VALID,0,
2010-01-26, 02:08:05,VALID,1001.13,VALID,0,VALID,93.9664,VALID,0,VALID,22.7062,VALID,148,VALID,0,
2010-01-26, 02:09:05,VALID,1001.11,VALID,0,VALID,93.974,VALID,0,VALID,22.7062,VALID,148,VALID,0,
2010-01-26, 02:10:05,VALID,1001.11,VALID,0,VALID,94.0122,VALID,0,VALID,22.7469,VALID,148,VALID,0,
2010-01-26, 02:11:05,VALID,1001.11,VALID,0,VALID,93.9664,VALID,0,VALID,22.6867,VALID,148,VALID,0,
2010-01-26, 02:12:05,VALID,1001.09,VALID,0,VALID,93.9893,VALID,0,VALID,22.6867,VALID,69,VALID,0,
2010-01-26, 02:13:05,VALID,1001.14,VALID,0,VALID,94.0122,VALID,0,VALID,22.6867,VALID,33,VALID,0,
2010-01-26, 02:14:05,VALID,1001.1,VALID,0,VALID,94.0198,VALID,0,VALID,22.6867,VALID,33,VALID,0,
2010-01-26, 02:15:05,VALID,1001.08,VALID,0,VALID,93.9893,VALID,0,VALID,22.6689,VALID,33,VALID,0,
2010-01-26, 02:16:05,VALID,1001.12,VALID,0,VALID,93.9893,VALID,0,VALID,22.6477,VALID,33,VALID,0,
2010-01-26, 02:17:05,VALID,1001.07,VALID,0,VALID,94.0122,VALID,0,VALID,22.6477,VALID,33,VALID,0,
2010-01-26, 02:18:05,VALID,1001.04,VALID,0,VALID,94.0351,VALID,0,VALID,22.6672,VALID,33,VALID,0,
2010-01-26, 02:19:05,VALID,1001.06,VALID,0,VALID,94.0503,VALID,0,VALID,22.6867,VALID,33,VALID,0,
2010-01-26, 02:20:05,VALID,1001.03,VALID,0,VALID,94.0274,VALID,0,VALID,22.6867,VALID,33,VALID,0,
2010-01-26, 02:21:05,VALID,1001.05,VALID,0,VALID,94.0503,VALID,0,VALID,22.7062,VALID,33,VALID,0,
2010-01-26, 02:22:05,VALID,1001.03,VALID,0,VALID,94.0427,VALID,0,VALID,22.7257,VALID,33,VALID,0,
2010-01-26, 02:23:05,VALID,1001.05,VALID,0,VALID,94.0503,VALID,0,VALID,22.7664,VALID,33,VALID,0,
2010-01-26, 02:24:05,VALID,1001.03,VALID,0,VALID,94.0656,VALID,0,VALID,22.8055,VALID,33,VALID,0,
2010-01-26, 02:25:05,VALID,1001.02,VALID,0,VALID,94.058,VALID,0,VALID,22.8037,VALID,33,VALID,0,
2010-01-26, 02:26:05,VALID,1001.03,VALID,0,VALID,94.0808,VALID,0,VALID,22.8427,VALID,33,VALID,0,
2010-01-26, 02:27:05,VALID,1001.05,VALID,0,VALID,94.0656,VALID,0,VALID,22.8445,VALID,33,VALID,0,
2010-01-26, 02:28:05,VALID,1001.04,VALID,0,VALID,94.058,VALID,0,VALID,22.8427,VALID,33,VALID,0,
2010-01-26, 02:29:05,VALID,1001.03,VALID,0,VALID,94.0656,VALID,0,VALID,22.864,VALID,33,VALID,0,
2010-01-26, 02:30:05,VALID,1001.02,VALID,0,VALID,94.0732,VALID,0,VALID,22.8427,VALID,33,VALID,0,
2010-01-26, 02:31:05,VALID,1000.98,VALID,0,VALID,94.0732,VALID,0,VALID,22.864,VALID,33,VALID,0,
2010-01-26, 02:32:05,VALID,1000.97,VALID,0,VALID,94.058,VALID,0,VALID,22.864,VALID,33,VALID,0,
2010-01-26, 02:33:05,VALID,1000.94,VALID,0,VALID,94.0503,VALID,0,VALID,22.8427,VALID,33,VALID,0,
2010-01-26, 02:34:05,VALID,1000.92,VALID,0,VALID,94.0732,VALID,0,VALID,22.864,VALID,33,VALID,0,
2010-01-26, 02:35:05,VALID,1000.94,VALID,0,VALID,94.0732,VALID,0,VALID,22.8427,VALID,33,VALID,0,
2010-01-26, 02:36:05,VALID,1000.95,VALID,0,VALID,94.0808,VALID,0,VALID,22.8623,VALID,33,VALID,0.00546875,
2010-01-26, 02:37:05,VALID,1000.95,VALID,0,VALID,94.0732,VALID,0,VALID,22.8623,VALID,33,VALID,0.833594,
2010-01-26, 02:38:05,VALID,1000.96,VALID,0,VALID,94.0808,VALID,0,VALID,22.8427,VALID,33,VALID,0.688281,
2010-01-26, 02:39:05,VALID,1000.98,VALID,0,VALID,94.0732,VALID,0,VALID,22.8427,VALID,33,VALID,0.704687,
2010-01-26, 02:40:05,VALID,1000.97,VALID,0,VALID,94.0732,VALID,0,VALID,22.8427,VALID,37,VALID,0.631641,
2010-01-26, 02:41:05,VALID,1000.92,VALID,0,VALID,94.0885,VALID,0,VALID,22.8623,VALID,42,VALID,0.726953,
2010-01-26, 02:42:05,VALID,1000.91,VALID,0,VALID,94.1037,VALID,0,VALID,22.8818,VALID,43,VALID,0.514453,
2010-01-26, 02:43:05,VALID,1000.9,VALID,0,VALID,94.0961,VALID,0,VALID,22.9013,VALID,53,VALID,0.346484,
2010-01-26, 02:44:05,VALID,1000.91,VALID,0,VALID,94.0732,VALID,0,VALID,22.9013,VALID,59,VALID,0.248437,
2010-01-26, 02:45:05,VALID,1000.92,VALID,0,VALID,94.0732,VALID,0,VALID,22.9013,VALID,70,VALID,0,
2010-01-26, 02:46:05,VALID,1000.91,VALID,0,VALID,94.0732,VALID,0,VALID,22.903,VALID,70,VALID,0,
2010-01-26, 02:47:05,VALID,1000.92,VALID,0,VALID,94.0656,VALID,0,VALID,22.903,VALID,70,VALID,0,
2010-01-26, 02:48:05,VALID,1000.89,VALID,0,VALID,94.058,VALID,0,VALID,22.8835,VALID,70,VALID,0,
2010-01-26, 02:49:05,VALID,1000.9,VALID,0,VALID,94.0808,VALID,0,VALID,22.8835,VALID,70,VALID,0,
2010-01-26, 02:50:05,VALID,1000.9,VALID,0,VALID,94.0656,VALID,0,VALID,22.8623,VALID,70,VALID,0,
2010-01-26, 02:51:05,VALID,1000.88,VALID,0,VALID,94.058,VALID,0,VALID,22.8835,VALID,64,VALID,0,
2010-01-26, 02:52:05,VALID,1000.91,VALID,0,VALID,94.0885,VALID,0,VALID,22.8835,VALID,56,VALID,0,
2010-01-26, 02:53:05,VALID,1000.85,VALID,0,VALID,94.0885,VALID,0,VALID,22.8818,VALID,53,VALID,0,
2010-01-26, 02:54:05,VALID,1000.84,VALID,0,VALID,94.0732,VALID,0,VALID,22.8818,VALID,49,VALID,0,
2010-01-26, 02:55:05,VALID,1000.87,VALID,0,VALID,94.0732,VALID,0,VALID,22.9013,VALID,42,VALID,0,
2010-01-26, 02:56:05,VALID,1000.81,VALID,0,VALID,94.0885,VALID,0,VALID,22.8818,VALID,37,VALID,0,
2010-01-26, 02:57:05,VALID,1000.82,VALID,0,VALID,94.058,VALID,0,VALID,22.8835,VALID,25,VALID,0.0960938,
2010-01-26, 02:58:05,VALID,1000.81,VALID,0,VALID,94.0732,VALID,0,VALID,22.864,VALID,16,VALID,0.876953,
2010-01-26, 02:59:05,VALID,1000.84,VALID,0,VALID,94.0656,VALID,0,VALID,22.903,VALID,12,VALID,0.752734,
2010-01-26, 03:00:05,VALID,1000.82,VALID,0,VALID,94.0808,VALID,0,VALID,22.8818,VALID,18,VALID,0.947656,
2010-01-26, 03:01:05,VALID,1000.82,VALID,0,VALID,94.0732,VALID,0,VALID,22.903,VALID,32,VALID,0.795703,
2010-01-26, 03:02:05,VALID,1000.8,VALID,0,VALID,94.0808,VALID,0,VALID,22.9013,VALID,38,VALID,0.983594,
2010-01-26, 03:03:05,VALID,1000.82,VALID,0,VALID,94.0656,VALID,0,VALID,22.903,VALID,34,VALID,0.482812,
2010-01-26, 03:04:05,VALID,1000.83,VALID,0,VALID,94.058,VALID,0,VALID,22.903,VALID,26,VALID,0.458594,
2010-01-26, 03:05:05,VALID,1000.85,VALID,0,VALID,94.0656,VALID,0,VALID,22.903,VALID,21,VALID,0.557422,
2010-01-26, 03:06:05,VALID,1000.86,VALID,0,VALID,94.0656,VALID,0,VALID,22.8818,VALID,21,VALID,0.568359,
2010-01-26, 03:07:05,VALID,1000.84,VALID,0,VALID,94.0656,VALID,0,VALID,22.8818,VALID,21,VALID,0.656641,
2010-01-26, 03:08:05,VALID,1000.84,VALID,0,VALID,94.0198,VALID,0,VALID,22.8623,VALID,21,VALID,0.466406,
2010-01-26, 03:09:05,VALID,1000.88,VALID,0,VALID,94.058,VALID,0,VALID,22.8623,VALID,27,VALID,0.336719,
2010-01-26, 03:10:05,VALID,1000.85,VALID,0,VALID,94.0503,VALID,0,VALID,22.8623,VALID,28,VALID,0.257031,
2010-01-26, 03:11:05,VALID,1000.88,VALID,0,VALID,94.0503,VALID,0,VALID,22.8623,VALID,28,VALID,0,
2010-01-26, 03:12:05,VALID,1000.9,VALID,0,VALID,94.0656,VALID,0,VALID,22.8623,VALID,28,VALID,0,
2010-01-26, 03:13:05,VALID,1000.94,VALID,0,VALID,94.058,VALID,0,VALID,22.8623,VALID,28,VALID,0,
2010-01-26, 03:14:05,VALID,1000.94,VALID,0,VALID,94.0656,VALID,0,VALID,22.8623,VALID,137,VALID,0.560938,
2010-01-26, 03:15:05,VALID,1000.98,VALID,0,VALID,94.0808,VALID,0,VALID,22.9013,VALID,137,VALID,0.9125,
2010-01-26, 03:16:05,VALID,1001,VALID,0,VALID,94.0503,VALID,0,VALID,22.9225,VALID,142,VALID,0.922266,
2010-01-26, 03:17:05,VALID,1001.01,VALID,0,VALID,94.0656,VALID,0,VALID,22.9208,VALID,159,VALID,0.765625,
2010-01-26, 03:18:05,VALID,1001.01,VALID,0,VALID,94.058,VALID,0,VALID,22.9208,VALID,167,VALID,0.828906,
2010-01-26, 03:19:05,VALID,1001.02,VALID,0,VALID,94.0656,VALID,0,VALID,22.9811,VALID,186,VALID,0.879297,
2010-01-26, 03:20:04,VALID,1001,VALID,0,VALID,94.0427,VALID,0,VALID,22.9988,VALID,181,VALID,0.616797,
2010-01-26, 03:21:04,VALID,1000.97,VALID,0,VALID,94.0732,VALID,0,VALID,23.0183,VALID,185,VALID,1.07813,
2010-01-26, 03:22:04,VALID,1000.97,VALID,0,VALID,94.0274,VALID,0,VALID,23.0183,VALID,182,VALID,1.37891,
2010-01-26, 03:23:04,VALID,1000.98,VALID,0,VALID,94.0198,VALID,0,VALID,23.0183,VALID,181,VALID,1.29883,
2010-01-26, 03:24:04,VALID,1000.96,VALID,0,VALID,94.0198,VALID,0,VALID,23.0183,VALID,173,VALID,1.24883,
2010-01-26, 03:25:04,VALID,1000.95,VALID,0,VALID,93.9969,VALID,0,VALID,23.0183,VALID,173,VALID,1.36797,
2010-01-26, 03:26:04,VALID,1000.95,VALID,0,VALID,93.9817,VALID,0,VALID,23.0183,VALID,167,VALID,1.09023,
2010-01-26, 03:27:04,VALID,1000.95,VALID,0,VALID,93.9359,VALID,0,VALID,22.9988,VALID,160,VALID,1.15039,
2010-01-26, 03:28:04,VALID,1000.95,VALID,0,VALID,93.9435,VALID,0,VALID,22.9793,VALID,160,VALID,0.746484,
2010-01-26, 03:29:04,VALID,1000.97,VALID,0,VALID,93.9054,VALID,0,VALID,22.9793,VALID,154,VALID,0.781641,
2010-01-26, 03:30:04,VALID,1000.97,VALID,0,VALID,93.8977,VALID,0,VALID,22.9598,VALID,155,VALID,0.947656,
2010-01-26, 03:31:04,VALID,1000.94,VALID,0,VALID,93.8825,VALID,0,VALID,22.9598,VALID,149,VALID,0.934375,
2010-01-26, 03:32:04,VALID,1000.92,VALID,0,VALID,93.8596,VALID,0,VALID,22.9598,VALID,150,VALID,0.719531,
2010-01-26, 03:33:04,VALID,1000.95,VALID,0,VALID,93.8596,VALID,0,VALID,22.9615,VALID,153,VALID,0.839063,
2010-01-26, 03:34:04,VALID,1000.97,VALID,0,VALID,93.8367,VALID,0,VALID,22.9403,VALID,153,VALID,0.477734,
2010-01-26, 03:35:04,VALID,1001.02,VALID,0,VALID,93.8138,VALID,0,VALID,22.9403,VALID,154,VALID,0.598437,
2010-01-26, 03:36:04,VALID,1001.05,VALID,0,VALID,93.8062,VALID,0,VALID,22.9403,VALID,154,VALID,0.51875,
2010-01-26, 03:37:04,VALID,1001.09,VALID,0,VALID,93.7833,VALID,0,VALID,22.9208,VALID,154,VALID,0.144922,
2010-01-26, 03:38:04,VALID,1001.09,VALID,0,VALID,93.7757,VALID,0,VALID,22.9208,VALID,154,VALID,0.294531,
2010-01-26, 03:39:04,VALID,1001.08,VALID,0,VALID,93.7604,VALID,0,VALID,22.9403,VALID,154,VALID,0.229297,
2010-01-26, 03:40:04,VALID,1001.08,VALID,0,VALID,93.7604,VALID,0,VALID,22.9403,VALID,154,VALID,0.375391,
2010-01-26, 03:41:04,VALID,1001.09,VALID,0,VALID,93.7451,VALID,0,VALID,22.9598,VALID,156,VALID,0.309766,
2010-01-26, 03:42:04,VALID,1001.12,VALID,0,VALID,93.7451,VALID,0,VALID,22.9598,VALID,157,VALID,0.484375,
2010-01-26, 03:43:04,VALID,1001.1,VALID,0,VALID,93.7299,VALID,0,VALID,22.9793,VALID,159,VALID,0.345313,
2010-01-26, 03:44:04,VALID,1001.11,VALID,0,VALID,93.7223,VALID,0,VALID,22.9598,VALID,159,VALID,0.185937,
2010-01-26, 03:45:04,VALID,1001.11,VALID,0,VALID,93.6841,VALID,0,VALID,22.9615,VALID,159,VALID,0.0558594,
2010-01-26, 03:46:04,VALID,1001.11,VALID,0,VALID,93.6765,VALID,0,VALID,22.9403,VALID,159,VALID,0,
2010-01-26, 03:47:04,VALID,1001.11,VALID,0,VALID,93.6765,VALID,0,VALID,22.9403,VALID,159,VALID,0,
2010-01-26, 03:48:04,VALID,1001.12,VALID,0,VALID,93.6765,VALID,0,VALID,22.9615,VALID,159,VALID,0,
2010-01-26, 03:49:04,VALID,1001.12,VALID,0,VALID,93.646,VALID,0,VALID,22.9208,VALID,159,VALID,0,
2010-01-26, 03:50:04,VALID,1001.11,VALID,0,VALID,93.6307,VALID,0,VALID,22.9013,VALID,158,VALID,0,
2010-01-26, 03:51:04,VALID,1001.1,VALID,0,VALID,93.6078,VALID,0,VALID,22.9013,VALID,133,VALID,0,
2010-01-26, 03:52:04,VALID,1001.12,VALID,0,VALID,93.6383,VALID,0,VALID,22.9013,VALID,92,VALID,0.571875,